Alpine, TX

3:55 AM CST on November 22, 2019 (GMT -0600)
Alpine

Weather History for KE38 - October, 2019

Change the Weather History Date:

Wednesday, October 23, 2019

  Actual Average (WUND) Record (WUND)
Temperature  
Mean Temperature 66 °F -  
Max Temperature 82 °F - - (-1)
Min Temperature 49 °F - - (-1)
Growing Degree Days 16 (Base 50)    
Moisture  
Dew Point 31 °F    
Average Humidity 30    
Maximum Humidity 50    
Minimum Humidity 17    
Precipitation  
Precipitation 0.00 in - - ()
Sea Level Pressure  
Sea Level Pressure 30.10 in    
Wind  
Wind Speed 7 mph ()    
Max Wind Speed 17 mph    
Max Gust Speed 23 mph    
Visibility 10.0 miles    
Events      
Averages and records for this station are not official NWS values.
T = Trace of Precipitation, MM = Missing Value Source: Averaged Metar Reports

Daily Weather History Graph

Daily Weather History Graph

Search for Another Location

Airport or City:

Astronomy

Oct. 23, 2019 Rise Set
Actual Time 8:02 AM CDT 7:15 PM CDT
Civil Twilight 7:37 AM CDT 7:39 PM CDT
Nautical Twilight 7:09 AM CDT 8:07 PM CDT
Astronomical Twilight 6:41 AM CDT 8:35 PM CDT
Moon 2:54 AM CDT (10/23) 4:40 PM CDT (10/23)
Length of Visible Light 12h 01m
Length of Day
11h 13m
Waning Crescent, 26% of the Moon is Illuminated
Oct 23
Waning Crescent
Oct 27
New
Nov 4
First Quarter
Nov 12
Full
Nov 19
Last Quarter

Hourly Weather History & Observations

Time (CDT) Temp. Dew Point Humidity Pressure Visibility Wind Dir Wind Speed Gust Speed Precip Events Conditions
12:15 AM 51.3 °F 23.7 °F 34% 30.18 in 10.0 mi SSW 4.6 mph - N/A   Clear
12:35 AM 50.0 °F 24.4 °F 37% 30.18 in 10.0 mi SSW 5.8 mph - N/A   Clear
12:55 AM 50.5 °F 24.1 °F 36% 30.17 in 10.0 mi SW 5.8 mph - N/A   Clear
1:15 AM 49.5 °F 23.9 °F 37% 30.17 in 10.0 mi West 3.5 mph - N/A   Clear
1:35 AM 55.6 °F 24.1 °F 30% 30.16 in 10.0 mi Calm Calm - N/A   Clear
1:55 AM 53.2 °F 23.5 °F 32% 30.15 in 10.0 mi Calm Calm - N/A   Clear
2:15 AM 54.3 °F 23.7 °F 31% 30.15 in 10.0 mi WSW 3.5 mph - N/A   Clear
2:35 AM 58.5 °F 23.0 °F 26% 30.15 in 10.0 mi SW 10.4 mph - N/A   Clear
2:55 AM 59.5 °F 21.9 °F 23% 30.15 in 10.0 mi SW 9.2 mph - N/A   Clear
3:15 AM 56.8 °F 22.5 °F 26% 30.15 in 10.0 mi SSW 5.8 mph - N/A   Clear
3:35 AM 56.1 °F 22.8 °F 28% 30.14 in 10.0 mi SSW 5.8 mph - N/A   Clear
3:55 AM 57.2 °F 22.3 °F 26% 30.15 in 10.0 mi SW 6.9 mph - N/A   Clear
4:15 AM 53.8 °F 23.5 °F 31% 30.14 in 10.0 mi SW 8.1 mph - N/A   Clear
4:35 AM 54.5 °F 23.9 °F 31% 30.14 in 10.0 mi SW 8.1 mph - N/A   Clear
4:55 AM 56.5 °F 24.3 °F 29% 30.14 in 10.0 mi WSW 8.1 mph - N/A   Clear
5:15 AM 55.2 °F 24.8 °F 31% 30.13 in 10.0 mi WSW 8.1 mph - N/A   Clear
5:35 AM 57.2 °F 27.0 °F 31% 30.12 in 10.0 mi West 12.7 mph - N/A   Clear
5:55 AM 56.8 °F 30.9 °F 37% 30.12 in 10.0 mi WSW 12.7 mph - N/A   Clear
6:35 AM 57.2 °F 35.1 °F 43% 30.13 in 10.0 mi West 12.7 mph - N/A   Clear
6:55 AM 57.6 °F 37.0 °F 46% 30.13 in 10.0 mi West 15.0 mph - N/A   Clear
7:15 AM 57.4 °F 37.6 °F 48% 30.12 in 10.0 mi West 13.8 mph - N/A   Clear
7:35 AM 57.4 °F 38.7 °F 50% 30.13 in 10.0 mi WSW 11.5 mph - N/A   Clear
7:55 AM 57.4 °F 38.8 °F 50% 30.13 in 10.0 mi WSW 11.5 mph - N/A   Clear
8:15 AM 57.6 °F 38.8 °F 50% 30.13 in 10.0 mi WSW 11.5 mph - N/A   Clear
8:35 AM 58.3 °F 39.2 °F 49% 30.14 in 10.0 mi WSW 9.2 mph - N/A   Clear
8:55 AM 60.4 °F 39.2 °F 45% 30.13 in 10.0 mi WSW 9.2 mph - N/A   Clear
9:15 AM 63.5 °F 37.6 °F 38% 30.13 in 10.0 mi WSW 8.1 mph - N/A   Clear
9:35 AM 65.3 °F 36.1 °F 34% 30.15 in 10.0 mi SW 5.8 mph - N/A   Clear
9:55 AM 68.0 °F 34.5 °F 29% 30.15 in 10.0 mi SW 9.2 mph - N/A   Clear
10:15 AM 69.8 °F 33.8 °F 27% 30.15 in 10.0 mi WSW 9.2 mph - N/A   Clear
10:35 AM 71.8 °F 32.0 °F 23% 30.15 in 10.0 mi SW 9.2 mph - N/A   Clear
10:55 AM 73.2 °F 32.0 °F 22% 30.15 in 10.0 mi SSW 9.2 mph - N/A   Clear
11:15 AM 74.8 °F 33.3 °F 22% 30.15 in 10.0 mi SW 10.4 mph - N/A   Clear
12:15 PM 78.1 °F 32.2 °F 19% 30.13 in 10.0 mi WSW 9.2 mph - N/A   Clear
12:35 PM 78.1 °F 32.5 °F 19% 30.12 in 10.0 mi WSW 11.5 mph 17.3 mph N/A   Clear
12:55 PM 79.2 °F 33.1 °F 19% 30.12 in 10.0 mi SW 10.4 mph - N/A   Clear
1:15 PM 80.1 °F 33.6 °F 19% 30.11 in 10.0 mi WSW 9.2 mph - N/A   Clear
1:35 PM 80.1 °F 32.9 °F 18% 30.09 in 10.0 mi SSW 10.4 mph 18.4 mph N/A   Clear
1:55 PM 80.2 °F 30.9 °F 17% 30.09 in 10.0 mi WSW 16.1 mph - N/A   Clear
2:15 PM 80.6 °F 32.0 °F 17% 30.07 in 10.0 mi SW 13.8 mph 23.0 mph N/A   Clear
2:35 PM 81.3 °F 31.8 °F 17% 30.06 in 10.0 mi SW 11.5 mph 21.9 mph N/A   Clear
2:55 PM 81.9 °F 32.9 °F 17% 30.05 in 10.0 mi SW 17.3 mph 20.7 mph N/A   Clear
3:15 PM 81.7 °F 32.7 °F 17% 30.04 in 10.0 mi SW 13.8 mph 20.7 mph N/A   Clear
3:35 PM 81.9 °F 32.9 °F 17% 30.04 in 10.0 mi WSW 16.1 mph 20.7 mph N/A   Clear
3:55 PM 82.2 °F 33.4 °F 17% 30.03 in 10.0 mi South 10.4 mph 20.7 mph N/A   Clear
4:15 PM 81.5 °F 33.1 °F 17% 30.02 in 10.0 mi SSW 13.8 mph 19.6 mph N/A   Clear
4:35 PM 82.6 °F 32.7 °F 17% 30.02 in 10.0 mi SSW 13.8 mph 21.9 mph N/A   Clear
4:55 PM 81.7 °F 33.4 °F 18% 30.02 in 10.0 mi SSW 11.5 mph 18.4 mph N/A   Clear
5:15 PM 81.7 °F 33.4 °F 18% 30.02 in 10.0 mi SW 9.2 mph - N/A   Clear
5:35 PM 81.5 °F 34.0 °F 18% 30.01 in 10.0 mi SSW 10.4 mph - N/A   Clear
5:55 PM 81.0 °F 33.3 °F 18% 30.01 in 10.0 mi West 8.1 mph - N/A   Clear
6:15 PM 80.4 °F 33.8 °F 19% 30.01 in 10.0 mi SW 8.1 mph - N/A   Clear
6:35 PM 79.0 °F 33.6 °F 19% 30.01 in 10.0 mi West 5.8 mph - N/A   Clear
6:55 PM 77.0 °F 32.5 °F 20% 30.02 in 10.0 mi West 6.9 mph - N/A   Clear
7:35 PM 69.1 °F 31.8 °F 25% 30.03 in 10.0 mi West 8.1 mph - N/A   Clear
7:55 PM 66.4 °F 30.7 °F 26% 30.04 in 10.0 mi West 6.9 mph - N/A   Clear
8:15 PM 63.0 °F 31.6 °F 31% 30.04 in 10.0 mi SW 6.9 mph - N/A   Clear
8:35 PM 62.8 °F 31.1 °F 30% 30.04 in 10.0 mi SW 8.1 mph - N/A   Clear
8:55 PM 59.0 °F 31.1 °F 35% 30.05 in 10.0 mi WSW 6.9 mph - N/A   Clear
9:15 PM 56.8 °F 31.1 °F 38% 30.06 in 10.0 mi WSW 6.9 mph - N/A   Clear
9:35 PM 58.3 °F 30.7 °F 35% 30.06 in 10.0 mi Calm Calm - N/A   Clear
9:55 PM 62.4 °F 30.4 °F 30% 30.07 in 10.0 mi South 3.5 mph - N/A   Clear
10:15 PM 59.2 °F 30.2 °F 33% 30.07 in 10.0 mi South 5.8 mph - N/A   Clear
10:35 PM 54.1 °F 30.7 °F 41% 30.07 in 10.0 mi SW 6.9 mph - N/A   Clear
10:55 PM 52.9 °F 31.1 °F 43% 30.07 in 10.0 mi SW 8.1 mph - N/A   Clear
11:15 PM 52.7 °F 30.7 °F 43% 30.07 in 10.0 mi WSW 6.9 mph - N/A   Clear
11:35 PM 50.9 °F 31.1 °F 47% 30.06 in 10.0 mi SW 5.8 mph - N/A   Clear
11:55 PM 50.9 °F 31.1 °F 47% 30.06 in 10.0 mi South 6.9 mph - N/A   Clear